• In Hungary
  • List of Countries
  • For 7 days
  • Water Temperature
  • Satellite Maps
  • Weather Map
  • News
  • Weather Widgets
  • user-avatar
    Login

    Hourly Weather Frenstat pod Radhostem

    Today, 18 February, Sunday

    Time Temperature Precipitation Wind Pressure Humidity
    00:00 -1°C° 0.3 mm 1 mps 727 mmHg 94%
    01:00 -1°C° 0 mm 1 mps 727 mmHg 94%
    02:00 -1°C° 0 mm 1 mps 727 mmHg 94%
    03:00 -4°C° 0 mm 2 mps 727 mmHg 94%
    04:00 -4°C° 0 mm 2 mps 727 mmHg 94%
    05:00 -4°C° 0 mm 2 mps 727 mmHg 95%
    06:00 -4°C° 0 mm 2 mps 728 mmHg 95%
    07:00 -3°C° 0 mm 2 mps 728 mmHg 95%
    08:00 -3°C° 0.1 mm 2 mps 728 mmHg 92%
    09:00 -2°C° 0.1 mm 3 mps 729 mmHg 90%
    10:00 -1°C° 0.1 mm 3 mps 729 mmHg 88%
    11:00 -1°C° 0 mm 3 mps 729 mmHg 84%
    12:00 -1°C° 0 mm 3 mps 729 mmHg 81%
    13:00 0°C° 0 mm 3 mps 729 mmHg 78%
    14:00 -1°C° 0 mm 3 mps 729 mmHg 78%
    15:00 -1°C° 0 mm 3 mps 729 mmHg 78%
    16:00 -1°C° 0 mm 2 mps 729 mmHg 78%
    17:00 -2°C° 0 mm 2 mps 729 mmHg 82%
    18:00 -4°C° 0 mm 2 mps 730 mmHg 85%
    19:00 -5°C° 0 mm 2 mps 730 mmHg 88%
    20:00 -3°C° 0 mm 1 mps 730 mmHg 89%
    21:00 -3°C° 0 mm 1 mps 730 mmHg 89%
    22:00 -4°C° 0 mm 1 mps 730 mmHg 89%
    23:00 -4°C° 0 mm 1 mps 730 mmHg 89%

    Tomorrow, 19 February, Monday

    Time Temperature Precipitation Wind Pressure Humidity
    00:00 -4°C° 0 mm 1 mps 730 mmHg 89%
    01:00 -4°C° 0 mm 1 mps 729 mmHg 89%
    02:00 -4°C° 0 mm 1 mps 729 mmHg 89%
    03:00 -4°C° 0 mm 1 mps 729 mmHg 88%
    04:00 -6°C° 0 mm 1 mps 728 mmHg 88%
    05:00 -6°C° 0 mm 1 mps 728 mmHg 87%
    06:00 -6°C° 0 mm 1 mps 728 mmHg 86%
    07:00 -6°C° 0 mm 1 mps 728 mmHg 85%
    08:00 -3°C° 0 mm 1 mps 728 mmHg 80%
    09:00 -1°C° 0 mm 1 mps 728 mmHg 75%
    10:00 0°C° 0 mm 1 mps 728 mmHg 70%
    11:00 +1°C° 0 mm 1 mps 728 mmHg 68%
    12:00 +2°C° 0 mm 1 mps 727 mmHg 67%
    13:00 +2°C° 0 mm 0 mps 727 mmHg 65%
    14:00 +2°C° 0 mm 0 mps 727 mmHg 67%
    15:00 +1°C° 0 mm 0 mps 726 mmHg 70%
    16:00 +1°C° 0 mm 0 mps 726 mmHg 72%
    17:00 0°C° 0 mm 0 mps 726 mmHg 76%
    18:00 0°C° 0 mm 1 mps 726 mmHg 79%
    19:00 -2°C° 0 mm 1 mps 725 mmHg 82%
    20:00 -2°C° 0 mm 1 mps 725 mmHg 82%
    21:00 -2°C° 0 mm 1 mps 725 mmHg 82%
    22:00 -2°C° 0 mm 1 mps 725 mmHg 82%
    23:00 -2°C° 0 mm 1 mps 725 mmHg 81%

    Day after tomorrow, 20 February, Tuesday

    Time Temperature Precipitation Wind Pressure Humidity
    00:00 -2°C° 0 mm 1 mps 725 mmHg 81%
    01:00 -2°C° 0 mm 1 mps 724 mmHg 80%
    02:00 -2°C° 0 mm 1 mps 724 mmHg 80%
    03:00 -2°C° 0 mm 1 mps 724 mmHg 79%
    04:00 -2°C° 0 mm 1 mps 723 mmHg 78%
    05:00 -2°C° 0 mm 1 mps 723 mmHg 78%
    06:00 -2°C° 0 mm 1 mps 723 mmHg 78%
    07:00 -2°C° 0 mm 1 mps 723 mmHg 77%
    08:00 -2°C° 0 mm 0 mps 723 mmHg 75%
    09:00 -1°C° 0 mm 0 mps 723 mmHg 72%
    10:00 0°C° 0 mm 0 mps 723 mmHg 69%
    11:00 +1°C° 0 mm 1 mps 723 mmHg 68%
    12:00 +2°C° 0 mm 1 mps 723 mmHg 67%
    13:00 +2°C° 0 mm 1 mps 723 mmHg 65%
    14:00 +2°C° 0 mm 1 mps 722 mmHg 68%
    15:00 +2°C° 0 mm 1 mps 722 mmHg 71%
    16:00 +2°C° 0 mm 1 mps 722 mmHg 74%
    17:00 +1°C° 0 mm 1 mps 722 mmHg 78%
    18:00 0°C° 0 mm 1 mps 722 mmHg 81%
    19:00 -1°C° 0 mm 1 mps 722 mmHg 84%
    20:00 -3°C° 0 mm 2 mps 722 mmHg 85%
    21:00 -3°C° 0 mm 2 mps 722 mmHg 85%
    22:00 -3°C° 0 mm 2 mps 722 mmHg 86%
    23:00 -3°C° 0.1 mm 2 mps 722 mmHg 86%

    21 February, Wednesday

    Time Temperature Precipitation Wind Pressure Humidity
    00:00 -3°C° 0.1 mm 2 mps 722 mmHg 87%
    01:00 -4°C° 0.1 mm 2 mps 722 mmHg 88%
    02:00 -4°C° 0.1 mm 2 mps 722 mmHg 88%
    03:00 -4°C° 0.1 mm 2 mps 722 mmHg 88%
    04:00 -4°C° 0.1 mm 2 mps 722 mmHg 88%
    05:00 -5°C° 0.1 mm 3 mps 722 mmHg 89%
    06:00 -5°C° 0.1 mm 3 mps 722 mmHg 89%
    07:00 -5°C° 0.1 mm 3 mps 722 mmHg 89%
    08:00 -5°C° 0.1 mm 3 mps 722 mmHg 87%
    09:00 -4°C° 0.1 mm 3 mps 722 mmHg 85%
    10:00 -4°C° 0.1 mm 3 mps 723 mmHg 84%
    11:00 -2°C° 0.1 mm 3 mps 722 mmHg 82%
    12:00 -2°C° 0.1 mm 3 mps 722 mmHg 80%
    13:00 -2°C° 0.1 mm 4 mps 722 mmHg 78%
    14:00 -3°C° 0 mm 4 mps 722 mmHg 78%
    15:00 -3°C° 0 mm 4 mps 722 mmHg 79%
    16:00 -3°C° 0 mm 4 mps 722 mmHg 79%
    17:00 -3°C° 0 mm 4 mps 722 mmHg 80%
    18:00 -4°C° 0 mm 4 mps 722 mmHg 82%
    19:00 -4°C° 0 mm 4 mps 722 mmHg 84%
    20:00 -5°C° 0 mm 4 mps 722 mmHg 84%
    21:00 -5°C° 0 mm 4 mps 722 mmHg 85%
    22:00 -5°C° 0 mm 4 mps 722 mmHg 85%
    23:00 -5°C° 0 mm 4 mps 722 mmHg 85%

    22 February, Thursday

    Time Temperature Precipitation Wind Pressure Humidity
    00:00 -5°C° 0 mm 4 mps 722 mmHg 85%
    01:00 -5°C° 0 mm 4 mps 722 mmHg 85%
    02:00 -5°C° 0 mm 4 mps 721 mmHg 85%
    03:00 -5°C° 0 mm 4 mps 721 mmHg 85%
    04:00 -6°C° 0 mm 5 mps 721 mmHg 85%
    05:00 -6°C° 0.1 mm 5 mps 720 mmHg 85%
    06:00 -6°C° 0.1 mm 5 mps 720 mmHg 86%
    07:00 -6°C° 0.1 mm 5 mps 720 mmHg 86%
    08:00 -5°C° 0.2 mm 5 mps 720 mmHg 85%
    09:00 -5°C° 0.2 mm 5 mps 720 mmHg 85%
    10:00 -4°C° 0.2 mm 5 mps 720 mmHg 84%
    11:00 -4°C° 0.3 mm 5 mps 719 mmHg 84%
    12:00 -4°C° 0.3 mm 5 mps 719 mmHg 84%
    13:00 -4°C° 0.3 mm 5 mps 719 mmHg 84%
    14:00 -4°C° 0.6 mm 5 mps 719 mmHg 87%
    15:00 -4°C° 0.6 mm 5 mps 718 mmHg 89%
    16:00 -3°C° 0.6 mm 4 mps 718 mmHg 91%
    17:00 -4°C° 0.8 mm 4 mps 718 mmHg 92%
    18:00 -4°C° 0.8 mm 4 mps 718 mmHg 93%
    19:00 -4°C° 0.8 mm 3 mps 717 mmHg 94%
    20:00 -4°C° 0.4 mm 3 mps 717 mmHg 94%
    21:00 -4°C° 0.4 mm 3 mps 717 mmHg 94%
    22:00 -4°C° 0.4 mm 3 mps 717 mmHg 94%
    23:00 -3°C° 0.1 mm 2 mps 717 mmHg 94%

    23 February, Friday

    Time Temperature Precipitation Wind Pressure Humidity
    00:00 -3°C° 0.1 mm 2 mps 716 mmHg 94%
    01:00 -4°C° 0.1 mm 2 mps 716 mmHg 94%
    02:00 -4°C° 0.1 mm 2 mps 716 mmHg 94%
    03:00 -4°C° 0.1 mm 2 mps 716 mmHg 94%
    04:00 -4°C° 0.1 mm 2 mps 715 mmHg 94%
    05:00 -4°C° 0 mm 2 mps 715 mmHg 94%
    06:00 -4°C° 0 mm 2 mps 715 mmHg 94%
    07:00 -4°C° 0 mm 2 mps 715 mmHg 94%
    08:00 -5°C° 0.2 mm 3 mps 715 mmHg 93%
    09:00 -4°C° 0.2 mm 3 mps 715 mmHg 92%
    10:00 -2°C° 0.2 mm 3 mps 715 mmHg 91%
    11:00 -2°C° 0.2 mm 3 mps 715 mmHg 90%
    12:00 -2°C° 0.2 mm 3 mps 714 mmHg 90%
    13:00 -1°C° 0.2 mm 3 mps 714 mmHg 89%
    14:00 -2°C° 0.2 mm 3 mps 714 mmHg 89%
    15:00 -3°C° 0.2 mm 4 mps 714 mmHg 90%
    16:00 -3°C° 0.2 mm 4 mps 713 mmHg 90%
    17:00 -3°C° 0.6 mm 4 mps 713 mmHg 91%
    18:00 -4°C° 0.6 mm 4 mps 713 mmHg 93%
    19:00 -4°C° 0.6 mm 4 mps 713 mmHg 94%
    20:00 -4°C° 0.9 mm 4 mps 713 mmHg 94%
    21:00 -5°C° 0.9 mm 4 mps 713 mmHg 94%
    22:00 -5°C° 0.9 mm 4 mps 712 mmHg 94%
    23:00 -6°C° 0.8 mm 5 mps 712 mmHg 94%
    Show more